Location: Penton Mewsey
(51.2167°N, 1.5167°W)
Time: 09:58:27
(UTC+00:00)

Cosmos 1610 Rocket - Pass Details

Date: 30 March 2020
Orbit: 952 x 1003 km, 82.9° (Epoch: 24 May)

Event Time Altitude Azimuth Distance (km) Brightness Sun altitude
Rises 20:53:23 0° 349° (N) 3,697 8.3 -20.5°
Reaches altitude 10° 20:55:56 10° 349° (N) 2,737 7.5 -20.9°
Maximum altitude 21:02:12 85° 263° (W) 978 4.5 -21.6°
Enters shadow 21:05:32 29° 176° (S) 1,671 5.4 -22.0°
